Flag for Germany Weather past 2 weeks in Bitterfeld-Wolfen, Saxony-Anhalt, Germany

Now
70 °F

Scattered clouds.


Feels Like: 70 °F
Forecast: 57 / 75 °F
Wind: 15 mph from Northwest

Location: Leipzig-Schkeuditz

Current Time: Jul 30, 2014 at 6:07:26 PM

Latest Report: Jul 30, 2014 at 5:20 PM


Visibility: N/A

Pressure: 29.80 "Hg

Humidity: 83%

Dew point: 64 °F

Location of Bitterfeld-WolfenLocation

Historic Weather in Bitterfeld-Wolfen — Graph

°F

Bitterfeld-Wolfen temperature yesterday

Maximum temperature yesterday: 79 °F (at 1:20 PM)
Minimum temperature yesterday: 64 °F (at 7:20 PM)
Average temperature yesterday: 70 °F

Past Weeks' High & Low Weather Summary

 TemperatureHumidityPressure
High93 °F (Jul 20, 3:50 PM)100% (Jul 24, 8:50 PM)30.18 "Hg (Jul 24, 8:50 PM)
Low57 °F (Jul 16, 4:50 AM)22% (Jul 19, 6:50 PM)29.71 "Hg (Jul 29, 5:20 PM)
Average72 °F70%29.96 "Hg
* Reported Jul 15 4:20 PM — Jul 30 4:50 PM, Bitterfeld-Wolfen, Weather by CustomWeather, © 2014

Note: Actual official high and low records may vary slightly from our data, if they occured in-between our weather recording intervals... More about our weather records

Advertising

Bitterfeld-Wolfen weather history for previous 24 hours

 ConditionsComfort  
Time TempWeatherWind HumidityBarometerVisibility
4:50 PM
Jul 30
72 °FBroken clouds.16 mph78%29.80 "HgN/A
4:20 PM72 °FBroken clouds.14 mph83%29.80 "HgN/A
3:50 PM70 °FBroken clouds.10 mph88%29.80 "HgN/A
3:20 PM70 °FBroken clouds.8 mph88%29.80 "HgN/A
2:50 PM70 °FBroken clouds.9 mph88%29.80 "HgN/A
2:20 PM70 °FBroken clouds.12 mph88%29.77 "HgN/A
1:50 PM70 °FBroken clouds.12 mph88%29.77 "HgN/A
1:20 PM70 °FPartly sunny.10 mph88%29.77 "HgN/A
12:50 PM68 °FPartly sunny.10 mph94%29.77 "HgN/A
12:20 PM68 °FFog.8 mph94%29.77 "Hg4 mi
11:50 AM68 °FFog.9 mph94%29.77 "Hg3 mi
11:20 AM68 °FDrizzle. Fog.9 mph100%29.77 "Hg2 mi
10:50 AM68 °FDrizzle. Fog.8 mph100%29.77 "Hg2 mi
10:20 AM66 °FDrizzle. Fog.8 mph100%29.77 "Hg2 mi
9:50 AM66 °FDrizzle. Fog.7 mph100%29.77 "Hg1 mi
9:20 AM66 °FDrizzle. Fog.8 mph100%29.74 "Hg1 mi
8:50 AM66 °FDrizzle. Fog.8 mph100%29.74 "Hg2 mi
8:20 AM66 °FFog.7 mph100%29.74 "Hg2 mi
7:50 AM66 °FFog.7 mph100%29.74 "Hg1 mi
7:20 AM66 °FFog.8 mph100%29.71 "Hg1 mi
6:50 AM66 °FFog.8 mph100%29.74 "Hg1 mi
6:20 AM66 °FDrizzle. Fog.7 mph100%29.74 "Hg1 mi
5:50 AM66 °FFog.7 mph100%29.74 "Hg1 mi
5:20 AM66 °FFog.6 mph100%29.74 "Hg2 mi
4:50 AM66 °FFog.5 mph100%29.74 "Hg2 mi
4:20 AM66 °FFog.5 mph100%29.71 "Hg2 mi
3:50 AM66 °FFog.5 mph100%29.71 "Hg2 mi
3:20 AM66 °FFog.5 mph100%29.71 "Hg3 mi
2:50 AM66 °FFog.7 mph100%29.71 "Hg3 mi
2:20 AM66 °FFog.8 mph100%29.71 "Hg3 mi
1:50 AM66 °FFog.6 mph100%29.74 "Hg3 mi
1:20 AM66 °FFog.6 mph100%29.74 "Hg3 mi
12:50 AM66 °FFog.3 mph100%29.74 "Hg3 mi
12:20 AM66 °FPassing clouds.3 mph100%29.74 "Hg4 mi
11:50 PM
Jul 29
66 °FPassing clouds.6 mph100%29.74 "Hg4 mi
11:20 PM66 °FPassing clouds.6 mph100%29.74 "Hg4 mi
10:50 PM66 °FPartly cloudy.7 mph100%29.74 "Hg4 mi
10:20 PM66 °FPartly cloudy.6 mph100%29.74 "Hg4 mi
9:50 PM66 °FBroken clouds.2 mph100%29.74 "Hg4 mi
9:20 PM66 °FBroken clouds.3 mph100%29.74 "Hg4 mi
8:50 PM66 °FPartly sunny.1 mph100%29.71 "Hg4 mi
8:20 PM66 °FSprinkles. Broken clouds.6 mph100%29.71 "HgN/A
7:50 PM66 °FRain showers. Broken clouds.6 mph100%29.71 "HgN/A
7:20 PM64 °FThunderstorms. Partly sunny.9 mph100%29.74 "Hg3 mi
6:50 PM66 °FMild.22 mph88%29.74 "Hg1 mi
6:20 PM70 °FStrong thunderstorms. Partly sunny.7 mph94%29.74 "HgN/A
Weather by CustomWeather, © 2014

See weather overviewHow to use our weather pages